Total_Precipitation_Accumulation
0.00 0.01 0.11 0.34 0.80 1.19 1.17 0.68 0.52 0.40 0.41 0.42 0.44 0.42 0.44 0.48 0.69 0.90 0.53 0.28 0.09 0.02 0.02 0.08 0.18 0.18 0.13 0.11 0.13 0.14 0.14 0.13 0.12 0.10 0.09 0.07 0.07 0.06 0.06 0.06 0.06 0.06 0.07 0.08 0.08 0.09 0.07 0.07 0.08
0.00 0.02 0.13 0.37 0.87 1.22 1.03 0.56 0.42 0.34 0.38 0.38 0.35 0.39 0.50 0.55 0.41 0.35 0.37 0.27 0.09 0.03 0.02 0.04 0.12 0.18 0.16 0.13 0.14 0.14 0.13 0.11 0.10 0.09 0.08 0.07 0.07 0.06 0.06 0.06 0.07 0.08 0.08 0.08 0.09 0.08 0.06 0.07 0.09
0.00 0.03 0.14 0.33 0.56 0.74 0.69 0.45 0.36 0.29 0.41 0.56 0.47 0.40 0.50 0.61 0.43 0.33 0.30 0.16 0.08 0.04 0.03 0.05 0.10 0.13 0.15 0.14 0.14 0.14 0.12 0.11 0.09 0.08 0.07 0.06 0.06 0.07 0.08 0.08 0.08 0.09 0.10 0.10 0.10 0.08 0.07 0.06 0.07
0.01 0.07 0.18 0.26 0.22 0.29 0.35 0.36 0.35 0.38 0.59 0.76 0.62 0.48 0.50 0.44 0.41 0.35 0.26 0.15 0.09 0.07 0.06 0.08 0.11 0.13 0.15 0.15 0.14 0.13 0.11 0.10 0.09 0.08 0.08 0.07 0.08 0.09 0.09 0.09 0.10 0.09 0.11 0.14 0.13 0.10 0.09 0.08 0.08
0.01 0.07 0.21 0.20 0.13 0.17 0.20 0.25 0.40 0.46 0.70 0.79 0.58 0.57 0.59 0.47 0.44 0.37 0.28 0.24 0.19 0.16 0.13 0.11 0.15 0.16 0.15 0.15 0.15 0.14 0.13 0.11 0.09 0.08 0.09 0.09 0.10 0.12 0.13 0.13 0.13 0.13 0.14 0.16 0.16 0.15 0.11 0.10 0.11
0.02 0.05 0.11 0.08 0.07 0.09 0.13 0.22 0.36 0.49 0.69 0.76 0.61 0.76 0.72 0.66 0.58 0.53 0.48 0.50 0.45 0.37 0.30 0.20 0.24 0.23 0.20 0.18 0.18 0.18 0.16 0.14 0.13 0.12 0.12 0.12 0.13 0.15 0.17 0.18 0.18 0.20 0.21 0.21 0.20 0.18 0.17 0.15 0.15
0.01 0.02 0.03 0.03 0.03 0.07 0.14 0.22 0.39 0.54 0.70 0.90 0.85 0.89 0.79 0.84 0.75 0.69 0.69 0.75 0.74 0.64 0.54 0.31 0.23 0.23 0.23 0.26 0.25 0.22 0.21 0.19 0.18 0.17 0.16 0.16 0.16 0.17 0.19 0.22 0.23 0.24 0.26 0.26 0.25 0.24 0.24 0.23 0.20
0.00 0.01 0.02 0.01 0.02 0.04 0.12 0.22 0.37 0.53 0.77 0.89 0.87 0.89 0.82 0.79 0.80 0.82 0.81 0.94 1.10 0.87 0.66 0.41 0.31 0.30 0.25 0.24 0.24 0.24 0.21 0.20 0.20 0.21 0.22 0.22 0.21 0.23 0.26 0.28 0.30 0.32 0.31 0.31 0.32 0.35 0.35 0.34 0.29
0.00 0.00 0.01 0.01 0.01 0.03 0.12 0.28 0.42 0.45 0.57 0.86 1.10 0.90 0.73 0.75 0.94 1.03 1.06 1.04 1.24 1.13 0.76 0.46 0.43 0.37 0.35 0.32 0.31 0.39 0.35 0.35 0.35 0.38 0.37 0.45 0.58 0.61 0.66 0.56 0.53 0.54 0.59 0.60 0.61 0.62 0.63 0.59 0.44
0.00 0.00 0.01 0.00 0.00 0.03 0.14 0.34 0.50 0.59 0.77 1.04 1.30 1.13 0.93 0.86 1.16 1.36 1.27 1.07 1.01 1.01 0.92 0.68 0.55 0.48 0.47 0.48 0.53 0.79 0.81 0.85 0.92 0.99 0.94 1.04 1.02 0.87 0.70 0.70 0.84 0.89 1.05 1.16 1.27 1.36 1.19 0.96 0.81
0.00 0.00 0.00 0.00 0.01 0.05 0.17 0.19 0.28 0.53 1.04 1.40 1.65 1.31 1.05 1.06 1.29 1.65 1.59 1.30 1.05 1.03 0.91 0.91 0.77 0.67 0.70 0.83 0.84 0.96 1.10 1.23 1.33 1.27 1.30 1.43 1.25 1.03 0.91 1.02 1.24 1.32 1.46 1.59 1.86 1.99 1.47 1.44 1.61
0.00 0.00 0.00 0.00 0.01 0.03 0.10 0.18 0.33 0.62 1.05 1.33 1.24 1.09 1.05 1.21 1.37 1.81 1.93 1.58 1.31 1.15 1.11 1.28 1.19 1.07 1.07 1.08 1.15 1.03 1.00 1.09 1.24 1.32 1.33 1.47 1.40 1.29 1.30 1.32 1.37 1.59 1.75 2.00 1.99 2.11 2.10 2.13 2.02
0.00 0.00 0.00 0.00 0.01 0.03 0.07 0.18 0.29 0.51 0.76 0.85 0.75 0.89 1.23 1.30 1.50 1.93 2.30 2.00 1.68 1.45 1.45 1.51 1.50 1.65 1.62 1.50 1.40 1.12 1.06 1.02 1.03 1.13 1.18 1.42 1.64 1.61 1.69 1.49 1.44 1.31 1.61 1.99 2.20 2.25 2.41 2.50 2.45
0.00 0.01 0.01 0.02 0.03 0.04 0.07 0.13 0.30 0.67 0.68 0.63 0.74 0.98 1.26 1.58 1.62 1.90 2.39 2.35 2.03 1.90 1.90 1.88 1.86 1.94 1.94 1.73 1.56 1.39 1.17 1.12 1.07 1.11 1.25 1.67 1.86 1.77 1.81 1.75 1.65 1.42 1.56 1.90 2.25 2.33 2.56 2.52 2.54
0.01 0.03 0.08 0.09 0.06 0.07 0.10 0.32 0.55 0.72 0.69 0.69 0.88 1.05 1.40 1.86 1.95 2.06 2.35 2.42 2.37 2.34 2.41 2.47 2.41 2.28 2.21 2.06 1.72 1.45 1.21 1.05 1.12 1.30 1.45 1.72 1.88 1.98 2.13 2.03 1.71 1.55 1.71 1.91 1.93 2.05 2.52 2.36 2.30
0.02 0.06 0.23 0.17 0.08 0.08 0.16 0.54 0.73 0.76 0.77 0.82 0.97 1.23 1.51 1.89 1.89 1.92 2.10 2.43 2.60 2.79 3.09 3.20 3.03 3.00 2.91 2.54 2.17 1.87 1.63 1.48 1.52 1.55 1.50 1.44 1.61 1.79 1.96 1.70 1.37 1.53 1.80 1.93 1.85 1.85 2.21 2.25 2.25
0.05 0.09 0.18 0.17 0.11 0.10 0.19 0.55 0.59 0.49 0.78 1.06 1.22 1.39 1.47 1.60 1.69 1.81 2.03 2.39 2.80 3.23 3.65 3.91 4.07 3.73 3.34 2.73 2.28 1.89 1.85 1.75 1.65 1.54 1.33 1.18 1.10 1.13 1.25 1.10 1.04 1.25 1.50 1.50 1.33 1.47 1.73 1.84 1.93
0.04 0.08 0.14 0.18 0.15 0.14 0.25 0.49 0.61 0.52 0.73 0.97 1.03 1.31 1.38 1.35 1.52 1.82 2.17 2.49 3.04 3.50 3.90 4.13 4.24 3.79 3.12 2.67 2.43 2.10 1.84 1.67 1.55 1.36 1.12 0.89 0.83 0.80 0.87 0.87 0.83 0.90 0.94 0.96 1.11 1.28 1.43 1.33 1.40
0.03 0.07 0.15 0.17 0.16 0.22 0.36 0.60 0.72 0.68 0.68 0.71 0.80 1.01 1.06 1.12 1.35 1.71 2.16 2.60 3.14 3.93 4.36 4.41 4.05 3.24 2.65 2.20 1.94 1.72 1.49 1.30 1.12 0.98 0.84 0.73 0.72 0.67 0.67 0.64 0.65 0.71 0.70 0.70 0.84 0.97 0.98 0.81 0.98
0.05 0.09 0.17 0.16 0.12 0.14 0.34 0.64 0.71 0.74 0.78 0.69 0.73 0.83 0.78 0.87 1.17 1.68 2.30 2.90 3.27 3.62 3.77 3.64 3.14 2.42 1.93 1.59 1.37 1.16 0.99 0.81 0.70 0.61 0.59 0.57 0.57 0.55 0.55 0.53 0.50 0.50 0.54 0.56 0.61 0.73 0.74 0.64 0.76
0.08 0.09 0.14 0.17 0.12 0.14 0.33 0.73 0.84 0.79 0.76 0.68 0.56 0.57 0.68 0.84 1.34 2.03 2.76 3.23 3.32 3.18 2.80 2.36 1.99 1.58 1.41 1.26 1.04 0.87 0.77 0.63 0.48 0.40 0.38 0.38 0.36 0.35 0.35 0.34 0.33 0.35 0.40 0.44 0.50 0.58 0.61 0.56 0.53
0.09 0.07 0.05 0.07 0.11 0.32 0.44 0.84 0.89 0.87 0.81 0.57 0.52 0.60 0.70 0.92 1.44 2.13 2.63 2.67 2.65 2.39 1.93 1.65 1.49 1.29 1.11 1.02 0.94 0.77 0.60 0.55 0.45 0.36 0.33 0.31 0.26 0.25 0.25 0.23 0.23 0.23 0.26 0.34 0.36 0.45 0.56 0.55 0.45
0.05 0.04 0.04 0.08 0.18 0.33 0.46 0.72 0.89 0.87 0.91 0.50 0.38 0.47 0.59 0.80 1.04 1.26 1.44 1.43 1.41 1.28 1.31 1.33 1.30 1.26 1.11 0.97 0.92 0.85 0.65 0.53 0.45 0.42 0.37 0.34 0.30 0.26 0.24 0.24 0.22 0.22 0.22 0.25 0.29 0.37 0.47 0.53 0.48
0.04 0.06 0.12 0.21 0.36 0.70 0.68 0.76 0.99 0.90 0.77 0.38 0.21 0.27 0.47 0.58 0.59 0.60 0.61 0.62 0.71 0.69 0.80 0.92 0.92 1.01 1.03 0.95 0.85 0.79 0.67 0.55 0.49 0.43 0.35 0.29 0.27 0.27 0.27 0.27 0.28 0.28 0.27 0.27 0.27 0.28 0.34 0.46 0.54
0.05 0.09 0.31 0.63 0.97 1.02 0.58 0.64 0.96 0.84 0.53 0.25 0.12 0.12 0.19 0.32 0.41 0.47 0.50 0.55 0.62 0.52 0.54 0.66 0.69 0.69 0.73 0.72 0.66 0.64 0.66 0.60 0.51 0.41 0.31 0.27 0.21 0.22 0.24 0.25 0.27 0.30 0.32 0.32 0.30 0.29 0.29 0.36 0.46
0.06 0.07 0.18 0.34 0.43 0.55 0.56 0.99 1.08 0.55 0.28 0.14 0.08 0.05 0.10 0.18 0.25 0.29 0.33 0.39 0.45 0.37 0.38 0.49 0.56 0.53 0.51 0.50 0.50 0.49 0.54 0.48 0.43 0.46 0.37 0.29 0.25 0.22 0.23 0.23 0.22 0.24 0.29 0.33 0.36 0.33 0.33 0.37 0.39
0.06 0.05 0.07 0.09 0.15 0.38 0.67 0.94 0.77 0.36 0.22 0.09 0.04 0.04 0.05 0.10 0.12 0.14 0.16 0.20 0.25 0.26 0.30 0.37 0.44 0.44 0.39 0.40 0.39 0.38 0.42 0.43 0.43 0.41 0.37 0.30 0.32 0.27 0.25 0.24 0.24 0.24 0.27 0.31 0.34 0.34 0.36 0.39 0.39
0.06 0.06 0.07 0.09 0.17 0.34 0.58 0.89 0.88 0.43 0.22 0.08 0.06 0.07 0.06 0.07 0.08 0.08 0.08 0.10 0.14 0.19 0.27 0.34 0.39 0.40 0.36 0.34 0.32 0.26 0.30 0.35 0.43 0.39 0.34 0.32 0.31 0.28 0.27 0.26 0.24 0.25 0.26 0.28 0.31 0.32 0.38 0.44 0.49
0.09 0.08 0.10 0.10 0.11 0.19 0.43 0.63 0.43 0.29 0.18 0.11 0.08 0.05 0.04 0.05 0.07 0.07 0.04 0.04 0.07 0.14 0.20 0.24 0.32 0.40 0.37 0.35 0.35 0.32 0.30 0.31 0.34 0.38 0.38 0.37 0.34 0.28 0.25 0.26 0.27 0.27 0.29 0.33 0.38 0.40 0.43 0.52 0.63
0.11 0.11 0.12 0.13 0.12 0.11 0.21 0.31 0.23 0.25 0.24 0.15 0.09 0.06 0.03 0.04 0.05 0.03 0.02 0.03 0.05 0.08 0.13 0.18 0.22 0.33 0.35 0.35 0.36 0.33 0.30 0.29 0.30 0.33 0.35 0.34 0.34 0.34 0.31 0.31 0.31 0.25 0.25 0.34 0.43 0.51 0.51 0.53 0.59